Time,TemperatureF,DewpointF,PressureIn,WindDirection,WindDirectionDegrees,WindSpeedMPH,WindSpeedGustMPH,Humidity,HourlyPrecipIn,Conditions,Clouds,dailyrainin,SoftwareType,DateUTC
2014-02-14 00:02:00,30.8,31.0,29.17,East,94,2.0,6.0,99,0.00,,,0.00,weatherlink.com 1.10,2014-02-14 05:02:00,
2014-02-14 00:18:00,31.0,31.0,29.16,West,275,1.0,5.0,99,0.00,,,0.00,weatherlink.com 1.10,2014-02-14 05:18:00,
2014-02-14 00:35:00,31.0,31.0,29.13,NNW,335,0.0,6.0,99,0.00,,,0.00,weatherlink.com 1.10,2014-02-14 05:35:00,
2014-02-14 00:51:00,30.9,31.0,29.10,WNW,303,1.0,1.0,99,0.00,,,0.00,weatherlink.com 1.10,2014-02-14 05:51:00,
2014-02-14 01:07:00,30.9,31.0,29.08,North,358,1.0,6.0,99,0.00,,,0.00,weatherlink.com 1.10,2014-02-14 06:07:00,
2014-02-14 01:43:00,31.0,31.0,29.05,NNW,346,2.0,4.0,99,0.00,,,0.00,weatherlink.com 1.10,2014-02-14 06:43:00,
2014-02-14 01:59:00,31.0,31.0,29.05,North,356,0.0,4.0,99,0.00,,,0.00,weatherlink.com 1.10,2014-02-14 06:59:00,
2014-02-14 02:15:00,31.0,31.0,29.03,NW,308,0.0,3.0,99,0.00,,,0.00,weatherlink.com 1.10,2014-02-14 07:15:00,
2014-02-14 02:35:00,30.8,31.0,29.02,WNW,284,0.0,3.0,99,0.00,,,0.00,weatherlink.com 1.10,2014-02-14 07:35:00,
2014-02-14 02:58:00,29.6,29.0,28.99,WNW,303,0.0,1.0,98,0.00,,,0.00,weatherlink.com 1.10,2014-02-14 07:58:00,
2014-02-14 03:17:00,29.3,29.0,28.97,NW,317,0.0,2.0,98,0.00,,,0.00,weatherlink.com 1.10,2014-02-14 08:17:00,
2014-02-14 03:38:00,28.8,28.0,28.97,NNW,346,1.0,5.0,98,0.00,,,0.00,weatherlink.com 1.10,2014-02-14 08:38:00,
2014-02-14 03:59:00,28.3,28.0,28.96,NNE,18,1.0,5.0,98,0.00,,,0.00,weatherlink.com 1.10,2014-02-14 08:59:00,
2014-02-14 04:16:00,28.0,28.0,28.96,NW,310,0.0,5.0,98,0.00,,,0.00,weatherlink.com 1.10,2014-02-14 09:16:00,
2014-02-14 04:32:00,28.0,28.0,28.96,West,260,1.0,4.0,98,0.00,,,0.00,weatherlink.com 1.10,2014-02-14 09:32:00,
2014-02-14 04:48:00,27.8,27.0,28.96,SW,227,1.0,3.0,98,0.00,,,0.00,weatherlink.com 1.10,2014-02-14 09:48:00,
2014-02-14 05:05:00,26.7,26.0,28.96,WNW,287,0.0,8.0,97,0.00,,,0.00,weatherlink.com 1.10,2014-02-14 10:05:00,
2014-02-14 05:22:00,26.2,25.0,28.96,WNW,283,5.0,6.0,97,0.00,,,0.00,weatherlink.com 1.10,2014-02-14 10:22:00,
2014-02-14 05:38:00,25.8,25.0,28.95,WNW,283,0.0,7.0,97,0.00,,,0.00,weatherlink.com 1.10,2014-02-14 10:38:00,
2014-02-14 05:54:00,25.4,25.0,28.96,SW,221,1.0,9.0,97,0.00,,,0.00,weatherlink.com 1.10,2014-02-14 10:54:00,
2014-02-14 06:11:00,25.3,25.0,28.96,WSW,245,4.0,11.0,97,0.00,,,0.00,weatherlink.com 1.10,2014-02-14 11:11:00,
2014-02-14 06:27:00,25.1,24.0,28.96,West,278,3.0,7.0,97,0.00,,,0.00,weatherlink.com 1.10,2014-02-14 11:27:00,
2014-02-14 06:43:00,25.0,24.0,28.96,WSW,246,3.0,8.0,97,0.00,,,0.00,weatherlink.com 1.10,2014-02-14 11:43:00,
2014-02-14 06:59:00,24.8,24.0,28.95,WNW,285,3.0,9.0,97,0.00,,,0.00,weatherlink.com 1.10,2014-02-14 11:59:00,
2014-02-14 07:16:00,24.7,24.0,28.95,SW,234,7.0,12.0,97,0.00,,,0.00,weatherlink.com 1.10,2014-02-14 12:16:00,
2014-02-14 07:32:00,24.5,24.0,28.95,WNW,282,2.0,11.0,97,0.00,,,0.00,weatherlink.com 1.10,2014-02-14 12:32:00,
2014-02-14 07:48:00,24.0,23.0,28.96,WSW,250,5.0,12.0,96,0.00,,,0.00,weatherlink.com 1.10,2014-02-14 12:48:00,
2014-02-14 08:04:00,23.2,22.0,28.97,WNW,290,6.0,14.0,96,0.00,,,0.00,weatherlink.com 1.10,2014-02-14 13:04:00,
2014-02-14 08:21:00,22.7,22.0,28.98,WSW,256,6.0,16.0,96,0.00,,,0.00,weatherlink.com 1.10,2014-02-14 13:21:00,
2014-02-14 08:38:00,22.2,21.0,28.99,WNW,298,7.0,24.0,96,0.00,,,0.00,weatherlink.com 1.10,2014-02-14 13:38:00,
2014-02-14 08:54:00,22.0,21.0,28.99,WSW,255,11.0,15.0,96,0.00,,,0.00,weatherlink.com 1.10,2014-02-14 13:54:00,
2014-02-14 09:10:00,21.9,21.0,29.00,SW,230,9.0,19.0,95,0.00,,,0.00,weatherlink.com 1.10,2014-02-14 14:10:00,
2014-02-14 09:26:00,21.5,20.0,29.00,WSW,237,16.0,18.0,95,0.00,,,0.00,weatherlink.com 1.10,2014-02-14 14:26:00,
2014-02-14 09:43:00,21.3,20.0,29.01,WSW,253,8.0,16.0,95,0.00,,,0.00,weatherlink.com 1.10,2014-02-14 14:43:00,
2014-02-14 09:59:00,21.3,20.0,29.02,NW,316,4.0,16.0,95,0.00,,,0.00,weatherlink.com 1.10,2014-02-14 14:59:00,
2014-02-14 10:15:00,21.4,20.0,29.02,NNW,333,7.0,19.0,96,0.00,,,0.00,weatherlink.com 1.10,2014-02-14 15:15:00,
2014-02-14 10:31:00,21.6,21.0,29.03,West,276,13.0,22.0,96,0.00,,,0.00,weatherlink.com 1.10,2014-02-14 15:31:00,
2014-02-14 10:48:00,21.8,21.0,29.03,NW,324,5.0,20.0,95,0.00,,,0.00,weatherlink.com 1.10,2014-02-14 15:48:00,
2014-02-14 11:04:00,22.3,21.0,29.05,WSW,245,16.0,20.0,95,0.00,,,0.00,weatherlink.com 1.10,2014-02-14 16:04:00,
2014-02-14 11:20:00,22.7,21.0,29.07,NW,305,5.0,23.0,94,0.00,,,0.00,weatherlink.com 1.10,2014-02-14 16:20:00,
2014-02-14 11:36:00,23.1,21.0,29.08,WSW,241,12.0,22.0,92,0.00,,,0.00,weatherlink.com 1.10,2014-02-14 16:36:00,
2014-02-14 11:53:00,23.5,22.0,29.09,SW,223,11.0,19.0,92,0.00,,,0.00,weatherlink.com 1.10,2014-02-14 16:53:00,
2014-02-14 12:09:00,23.9,21.0,29.11,WNW,301,8.0,24.0,90,0.00,,,0.00,weatherlink.com 1.10,2014-02-14 17:09:00,
2014-02-14 12:25:00,24.2,22.0,29.13,South,180,11.0,23.0,91,0.00,,,0.00,weatherlink.com 1.10,2014-02-14 17:25:00,
2014-02-14 12:58:00,24.2,22.0,29.16,WNW,294,6.0,20.0,93,0.00,,,0.00,weatherlink.com 1.10,2014-02-14 17:58:00,
2014-02-14 13:14:00,24.1,22.0,29.18,West,279,8.0,18.0,92,0.00,,,0.00,weatherlink.com 1.10,2014-02-14 18:14:00,
2014-02-14 13:30:00,24.2,22.0,29.19,WNW,287,12.0,20.0,93,0.00,,,0.00,weatherlink.com 1.10,2014-02-14 18:30:00,
2014-02-14 13:46:00,24.8,23.0,29.20,WNW,288,5.0,22.0,91,0.00,,,0.00,weatherlink.com 1.10,2014-02-14 18:46:00,
2014-02-14 14:03:00,24.9,23.0,29.21,NNW,330,9.0,17.0,92,0.00,,,0.00,weatherlink.com 1.10,2014-02-14 19:03:00,
2014-02-14 14:19:00,25.2,23.0,29.23,West,260,12.0,19.0,91,0.00,,,0.00,weatherlink.com 1.10,2014-02-14 19:19:00,
2014-02-14 14:35:00,25.5,23.0,29.24,ESE,121,1.0,16.0,90,0.00,,,0.00,weatherlink.com 1.10,2014-02-14 19:35:00,
2014-02-14 14:51:00,25.9,23.0,29.25,WNW,290,6.0,19.0,90,0.00,,,0.00,weatherlink.com 1.10,2014-02-14 19:51:00,
2014-02-14 15:08:00,26.3,23.0,29.25,WSW,256,13.0,15.0,89,0.00,,,0.00,weatherlink.com 1.10,2014-02-14 20:08:00,
2014-02-14 15:24:00,26.5,24.0,29.27,West,276,3.0,15.0,90,0.00,,,0.00,weatherlink.com 1.10,2014-02-14 20:24:00,
2014-02-14 15:40:00,26.8,24.0,29.29,SW,230,14.0,14.0,90,0.00,,,0.00,weatherlink.com 1.10,2014-02-14 20:40:00,
2014-02-14 15:56:00,26.8,25.0,29.31,WSW,241,11.0,16.0,91,0.00,,,0.00,weatherlink.com 1.10,2014-02-14 20:56:00,
2014-02-14 16:13:00,26.9,24.0,29.32,West,270,6.0,14.0,90,0.00,,,0.00,weatherlink.com 1.10,2014-02-14 21:13:00,
2014-02-14 16:29:00,27.3,24.0,29.33,NE,43,12.0,16.0,89,0.00,,,0.00,weatherlink.com 1.10,2014-02-14 21:29:00,
2014-02-14 16:45:00,27.5,24.0,29.34,West,279,3.0,19.0,88,0.00,,,0.00,weatherlink.com 1.10,2014-02-14 21:45:00,
2014-02-14 17:02:00,27.5,24.0,29.36,NNW,332,4.0,21.0,87,0.00,,,0.00,weatherlink.com 1.10,2014-02-14 22:02:00,
2014-02-14 17:18:00,27.5,24.0,29.39,WSW,249,7.0,16.0,87,0.00,,,0.00,weatherlink.com 1.10,2014-02-14 22:18:00,
2014-02-14 17:34:00,27.5,24.0,29.40,SW,225,6.0,20.0,87,0.00,,,0.00,weatherlink.com 1.10,2014-02-14 22:34:00,
2014-02-14 17:50:00,27.4,24.0,29.43,WSW,241,8.0,17.0,87,0.00,,,0.00,weatherlink.com 1.10,2014-02-14 22:50:00,
2014-02-14 18:07:00,27.4,24.0,29.43,SSE,147,9.0,20.0,87,0.00,,,0.00,weatherlink.com 1.10,2014-02-14 23:07:00,
2014-02-14 18:23:00,27.0,24.0,29.45,NW,312,7.0,14.0,89,0.00,,,0.00,weatherlink.com 1.10,2014-02-14 23:23:00,
2014-02-14 18:39:00,26.9,24.0,29.47,NW,323,8.0,16.0,89,0.00,,,0.00,weatherlink.com 1.10,2014-02-14 23:39:00,
2014-02-14 18:58:00,26.7,24.0,29.49,WNW,291,4.0,20.0,89,0.00,,,0.00,weatherlink.com 1.10,2014-02-14 23:58:00,
2014-02-14 19:14:00,26.4,23.0,29.50,West,263,3.0,17.0,88,0.00,,,0.00,weatherlink.com 1.10,2014-02-15 00:14:00,
2014-02-14 19:30:00,26.4,23.0,29.50,SSW,208,5.0,15.0,87,0.00,,,0.00,weatherlink.com 1.10,2014-02-15 00:30:00,
2014-02-14 19:46:00,26.3,23.0,29.53,WNW,302,2.0,13.0,86,0.00,,,0.00,weatherlink.com 1.10,2014-02-15 00:46:00,
2014-02-14 20:03:00,26.3,23.0,29.54,SSW,211,7.0,16.0,86,0.00,,,0.00,weatherlink.com 1.10,2014-02-15 01:03:00,
2014-02-14 20:19:00,26.3,22.0,29.55,WNW,294,8.0,19.0,85,0.00,,,0.00,weatherlink.com 1.10,2014-02-15 01:19:00,
2014-02-14 20:35:00,26.3,22.0,29.57,WSW,255,3.0,20.0,85,0.00,,,0.00,weatherlink.com 1.10,2014-02-15 01:35:00,
2014-02-14 20:51:00,26.3,22.0,29.60,West,267,6.0,12.0,85,0.00,,,0.00,weatherlink.com 1.10,2014-02-15 01:51:00,
2014-02-14 21:08:00,26.1,22.0,29.62,NW,305,6.0,12.0,84,0.00,,,0.00,weatherlink.com 1.10,2014-02-15 02:08:00,
2014-02-14 21:24:00,26.1,22.0,29.64,NNW,339,7.0,11.0,84,0.00,,,0.00,weatherlink.com 1.10,2014-02-15 02:24:00,
2014-02-14 21:40:00,25.9,22.0,29.65,SSW,195,8.0,11.0,84,0.00,,,0.00,weatherlink.com 1.10,2014-02-15 02:40:00,
2014-02-14 21:56:00,26.1,22.0,29.65,West,263,7.0,16.0,83,0.00,,,0.00,weatherlink.com 1.10,2014-02-15 02:56:00,
2014-02-14 22:12:00,26.2,21.0,29.65,SW,231,3.0,22.0,81,0.00,,,0.00,weatherlink.com 1.10,2014-02-15 03:12:00,
2014-02-14 22:29:00,25.6,21.0,29.65,SW,221,5.0,12.0,82,0.00,,,0.00,weatherlink.com 1.10,2014-02-15 03:29:00,
2014-02-14 22:45:00,25.5,21.0,29.66,WSW,251,7.0,10.0,82,0.00,,,0.00,weatherlink.com 1.10,2014-02-15 03:45:00,
2014-02-14 23:02:00,25.1,21.0,29.67,WSW,253,2.0,9.0,83,0.00,,,0.00,weatherlink.com 1.10,2014-02-15 04:02:00,
2014-02-14 23:18:00,24.9,20.0,29.69,WSW,256,10.0,10.0,83,0.00,,,0.00,weatherlink.com 1.10,2014-02-15 04:18:00,
2014-02-14 23:34:00,25.1,20.0,29.70,WNW,285,2.0,8.0,82,0.00,,,0.00,weatherlink.com 1.10,2014-02-15 04:34:00,
2014-02-14 23:50:00,24.8,20.0,29.71,SW,220,4.0,7.0,83,0.00,,,0.00,weatherlink.com 1.10,2014-02-15 04:50:00,